Weather in Silivri

Turkey     41°04′19″N   28°15′11″E
temp.,
°C
wind,
m/s
gust,
m/s
humid.,
%
clouds,
%
prec.,
mm/h
press.,
hPa
HPBL,
m
26 october, tue
tue2600:00+13ne9105914 0.0 10271195
03:00+13ne911650 0.0 10261009
06:00+13ene810650 0.0 1025952
09:00+13ene1011670 0.0 10251098
12:00+15ne910590 0.0 10251252
15:00+16ne910593 0.0 10221298
18:00+14ne1011670 0.0 1022967
21:00+14ne912710 0.0 1023804
27 october, wed
wed2700:00+14ne811740 0.0 1022713
03:00+14ne810750 0.0 1022661
06:00+14ne710720 0.0 1022671
09:00+14ne79710 0.0 1024856
12:00+15ne786591 0.0 10241194
15:00+15ne8865100 0.0 10241270
18:00+15ne896599 0.0 10241252
21:00+14ne786799 0.0 10251108
28 october, thu
thu2800:00+15ne7862100 0.0 10251184
03:00+14ne786699 0.0 10251029
06:00+15ne7865100 0.0 10251147
09:00+15ne8961100 0.0 10261370
12:00+16ne88583 0.0 10261360
15:00+16ne99600 0.0 10241210
18:00+15ne910655 0.0 1024982
21:00+13ne911725 0.0 1025801
29 october, fri
fri2900:00+13ne8107323 0.0 1025710
03:00+13ne810755 0.0 1025670
06:00+13ne8117749 0.0 1024730
09:00+14ne810755 0.0 1025847
12:00+16ne910630 0.0 10251045
15:00+16ne910640 0.0 10241012
18:00+15ne1012720 0.0 1024833
21:00+14ne912755 0.0 1024781
30 october, sat
sat3000:00+14ne812771 0.0 1024729
03:00+14ne811790 0.0 1024704
06:00+14ne811830 0.0 1024717
09:00+15ne912780 0.0 1025848
12:00+17ne1012680 0.0 1025948
15:00+17ne1112690 0.0 1023921
18:00+15ne1113808 0.0 1024870
21:00+15ne11137613 0.0 1024834